Simultaneous Nadir Overpasses (SNOs) Predictions

Prediction of SNOs between GOES-14 and AQUA Satellite Orbit:

Table of predicted SNOs for the next 14.0 days since TLE Epoch: 10/28/2023
Index Date Time (GOES-14) GOES-14 Lat,Lon AQUA Lat,Lon Distance(km) Time Diff (sec)
1 10/29/2023 09:00:28 0.10,-108.63 -0.52,-105.87 314.08 80
2 10/29/2023 21:18:31 -0.07,-108.57 -0.55,-110.89 263.70 80
3 10/31/2023 21:06:19 -0.08,-108.57 0.22,-107.26 149.55 80
4 11/01/2023 09:24:13 0.06,-108.63 0.81,-112.24 410.41 80
5 11/03/2023 09:12:00 0.06,-108.63 0.04,-108.61 3.39 80
6 11/05/2023 08:57:06 0.07,-108.63 -0.71,-104.97 416.97 80
7 11/05/2023 21:15:09 -0.04,-108.57 -0.32,-109.99 160.46 80
8 11/07/2023 21:02:54 -0.05,-108.58 0.43,-106.34 254.19 80
9 11/08/2023 09:20:47 0.02,-108.64 0.58,-111.33 305.39 80
10 11/10/2023 09:08:31 0.03,-108.65 -0.16,-107.68 109.84 80
11 11/10/2023 21:26:33 -0.00,-108.59 -0.89,-112.69 467.11 80
